Home   Weather   Grande Prairie   Past weeks

Flag for Canada Past Weather in Grande Prairie, Alberta, Canada — Yesterday and Last 2 Weeks

Now
-11 °F

Light snow. Low clouds.


Feels Like: -25 °F
Forecast: -18 / -9 °F
Wind: 6 mph from Northeast

Location: Grande Prairie

Current Time: Dec 8, 2016 at 7:27:01 am

Latest Report: Dec 8, 2016 at 7:00 am


Visibility: 6 mi

Pressure: 30.95 "Hg (28.28 "Hg at 657m altitude)

Humidity: 76%

Dew Point: -17 °F

Location of Grande PrairieLocation

Past Weather in Grande Prairie — Graph

°F

Grande Prairie Temperature Yesterday

Maximum temperature yesterday: -8 °F (at 2:00 pm)
Minimum temperature yesterday: -17 °F (at 4:00 am)
Average temperature yesterday: -13 °F

High & Low Weather Summary for the Past Weeks

 TemperatureHumidityPressure
High34 °F (Dec 3, 1:00 pm)93% (Nov 23, 6:00 am)30.99 "Hg (Nov 23, 6:00 am)
Low-17 °F (Dec 7, 4:00 am)55% (Dec 3, 4:00 pm)29.48 "Hg (Nov 27, 4:00 pm)
Average11 °F83%30.04 "Hg
* Reported Nov 23 6:00 am — Dec 8 6:00 am, Grande Prairie, Weather by CustomWeather, © 2016

Note: Actual official high and low records may vary slightly from our data, if they occured in-between our weather recording intervals... More about our weather records

Advertising

Grande Prairie Weather History for the Previous 24 Hours

Scroll right to see more
 ConditionsComfort  
Time TempWeatherWind HumidityBarometerVisibility
6:00 am
Thu, Dec 8
-11 °FLight snow. Low clouds.5 mph76%30.96 "Hg6 mi
5:00 am-11 °FSnow flurries. Low clouds.3 mph76%30.95 "Hg6 mi
4:00 am-11 °FSnow flurries. Low clouds.3 mph76%30.97 "Hg6 mi
3:00 am-13 °FSnow flurries. Low clouds.No wind76%30.98 "Hg6 mi
2:49 am-13 °FSnow flurries. Low clouds.No wind76%30.98 "Hg6 mi
2:00 am-13 °FSnow flurries. Overcast.3 mph76%30.98 "Hg6 mi
1:00 am-13 °FSnow flurries. Passing clouds.3 mph76%30.98 "Hg6 mi
12:00 am-13 °FSnow flurries. Passing clouds.5 mph69%30.98 "Hg5 mi
11:00 pm
Wed, Dec 7
-13 °FPassing clouds.2 mph69%30.99 "Hg10 mi
10:00 pm-13 °FMostly cloudy.3 mph76%30.99 "Hg20 mi
9:00 pm-15 °FPassing clouds.3 mph76%30.99 "Hg20 mi
8:00 pm-13 °FPassing clouds.3 mph69%30.98 "Hg25 mi
7:00 pm-13 °FPassing clouds.2 mph69%30.99 "Hg20 mi
6:00 pm-13 °FPassing clouds.5 mph76%30.99 "Hg25 mi
5:00 pm-9 °FPassing clouds.3 mph70%30.97 "Hg20 mi
4:00 pm-9 °FPartly sunny.5 mph77%30.96 "Hg25 mi
3:00 pm-8 °FPartly sunny.5 mph70%30.96 "Hg25 mi
2:00 pm-8 °FPartly sunny.2 mph70%30.96 "Hg25 mi
1:00 pm-9 °FScattered clouds.2 mph77%30.95 "Hg20 mi
12:00 pm-11 °FScattered clouds.5 mph76%30.95 "Hg20 mi
11:00 am-11 °FBroken clouds.3 mph70%30.95 "Hg25 mi
10:54 am-13 °FPartly sunny.5 mph76%30.94 "Hg25 mi
10:00 am-13 °FLight snow. Partly sunny.2 mph76%30.94 "Hg25 mi
9:00 am-13 °FPassing clouds.No wind76%30.92 "Hg25 mi
8:00 am-13 °FLight snow. Passing clouds.3 mph69%30.91 "Hg25 mi
7:50 am-15 °FLight snow. Passing clouds.3 mph76%30.91 "Hg25 mi
7:00 am-15 °FPassing clouds.No wind76%30.90 "Hg25 mi
Weather by CustomWeather, © 2016

See weather overviewHow to use our weather pages